Time,TemperatureF,DewpointF,PressureIn,WindDirection,WindDirectionDegrees,WindSpeedMPH,WindSpeedGustMPH,Humidity,HourlyPrecipIn,Conditions,Clouds,dailyrainin,SolarRadiationWatts/m^2,SoftwareType,DateUTC
2013-05-06 00:00:00,58.5,49.8,30.13,WNW,286,0.0,6.0,73,0.00,-RA,OVC,0.00,0.0,WeatherDisplay:10.37,2013-05-05 23:00:00,
2013-05-06 00:30:00,58.0,49.0,30.12,West,277,0.0,6.0,72,0.00,-RA,OVC,0.00,0.0,WeatherDisplay:10.37,2013-05-05 23:30:00,
2013-05-06 01:00:00,57.0,48.4,30.12,West,277,0.0,5.0,73,0.00,-RA,OVC,0.00,0.0,WeatherDisplay:10.37,2013-05-06 00:00:00,
2013-05-06 01:30:00,56.1,48.2,30.11,West,277,0.0,5.0,75,0.00,-RA,OVC,0.00,0.0,WeatherDisplay:10.37,2013-05-06 00:30:00,
2013-05-06 02:00:00,55.2,48.1,30.11,West,277,0.0,4.0,77,0.00,-RA,OVC,0.00,0.0,WeatherDisplay:10.37,2013-05-06 01:00:00,
2013-05-06 02:30:00,54.7,47.9,30.11,West,277,0.0,2.0,78,0.00,-RA,OVC,0.00,0.0,WeatherDisplay:10.37,2013-05-06 01:30:00,
2013-05-06 03:00:00,53.9,47.5,30.10,West,277,0.0,2.0,79,0.00,-RA,OVC,0.00,0.0,WeatherDisplay:10.37,2013-05-06 02:00:00,
2013-05-06 03:30:00,53.7,47.6,30.10,West,277,0.0,3.0,80,0.00,-RA,OVC,0.00,0.0,WeatherDisplay:10.37,2013-05-06 02:30:00,
2013-05-06 04:00:00,53.5,47.4,30.10,West,277,0.0,3.0,80,0.00,-RA,OVC,0.00,0.0,WeatherDisplay:10.37,2013-05-06 03:00:00,
2013-05-06 04:30:00,53.6,47.5,30.10,West,277,0.0,2.0,80,0.00,-RA,OVC,0.00,0.0,WeatherDisplay:10.37,2013-05-06 03:30:00,
2013-05-06 05:00:00,53.5,47.4,30.09,West,277,0.0,2.0,80,0.00,-RA,OVC,0.00,0.0,WeatherDisplay:10.37,2013-05-06 04:00:00,
2013-05-06 05:30:00,53.4,47.7,30.09,West,277,0.0,3.0,81,0.00,-RA,OVC,0.00,0.0,WeatherDisplay:10.37,2013-05-06 04:30:00,
2013-05-06 06:00:00,53.4,47.7,30.09,West,277,0.0,1.0,81,0.00,-RA,OVC,0.00,16.0,WeatherDisplay:10.37,2013-05-06 05:00:00,
2013-05-06 06:30:00,53.6,47.9,30.10,West,277,0.0,3.0,81,0.00,-RA,OVC,0.00,44.0,WeatherDisplay:10.37,2013-05-06 05:30:00,
2013-05-06 07:00:00,54.2,48.1,30.10,West,277,1.0,3.0,80,0.00,-RA,OVC,0.00,74.0,WeatherDisplay:10.37,2013-05-06 06:00:00,
2013-05-06 07:30:00,54.5,48.1,30.10,West,277,0.0,4.0,79,0.00,-RA,OVC,0.00,137.0,WeatherDisplay:10.37,2013-05-06 06:30:00,
2013-05-06 08:00:00,55.4,48.3,30.10,West,277,0.0,2.0,77,0.00,-RA,OVC,0.00,158.0,WeatherDisplay:10.37,2013-05-06 07:00:00,
2013-05-06 08:30:00,56.3,48.1,30.10,West,277,0.0,2.0,74,0.00,-RA,OVC,0.00,200.0,WeatherDisplay:10.37,2013-05-06 07:30:00,
2013-05-06 09:00:00,58.2,48.4,30.10,West,277,0.0,2.0,70,0.00,-RA,OVC,0.00,531.0,WeatherDisplay:10.37,2013-05-06 08:00:00,
2013-05-06 09:30:00,61.2,49.7,30.09,West,277,0.0,4.0,66,0.00,-RA,OVC,0.00,585.0,WeatherDisplay:10.37,2013-05-06 08:30:00,
2013-05-06 10:00:00,63.1,49.0,30.09,SSE,154,0.0,5.0,60,0.00,-RA,OVC,0.00,643.0,WeatherDisplay:10.37,2013-05-06 09:00:00,
2013-05-06 10:30:00,64.4,48.4,30.10,SW,235,0.0,4.0,56,0.00,-RA,OVC,0.00,715.0,WeatherDisplay:10.37,2013-05-06 09:30:00,
2013-05-06 11:00:00,65.6,49.0,30.09,South,180,0.0,5.0,55,0.00,-RA,OVC,0.00,889.0,WeatherDisplay:10.37,2013-05-06 10:00:00,
2013-05-06 11:30:00,66.3,48.1,30.08,SSW,194,0.0,5.0,52,0.00,-RA,OVC,0.00,438.0,WeatherDisplay:10.37,2013-05-06 10:30:00,
2013-05-06 12:00:00,66.6,47.4,30.08,SW,231,1.0,7.0,50,0.00,-RA,OVC,0.00,589.0,WeatherDisplay:10.37,2013-05-06 11:00:00,
2013-05-06 12:30:00,67.4,48.6,30.08,South,172,5.0,10.0,51,0.00,-RA,OVC,0.00,849.0,WeatherDisplay:10.37,2013-05-06 11:30:00,
2013-05-06 13:00:00,68.0,49.2,30.07,WSW,256,2.0,12.0,51,0.00,-RA,OVC,0.00,867.0,WeatherDisplay:10.37,2013-05-06 12:00:00,
2013-05-06 13:30:00,67.7,48.9,30.06,South,175,1.0,12.0,51,0.00,-RA,OVC,0.00,244.0,WeatherDisplay:10.37,2013-05-06 12:30:00,
2013-05-06 14:00:00,68.3,49.4,30.05,South,186,1.0,7.0,51,0.00,-RA,OVC,0.00,227.0,WeatherDisplay:10.37,2013-05-06 13:00:00,
2013-05-06 14:30:00,67.2,49.4,30.05,SSE,152,0.0,7.0,53,0.00,-RA,OVC,0.00,174.0,WeatherDisplay:10.37,2013-05-06 13:30:00,
2013-05-06 15:00:00,67.8,49.6,30.04,SSE,159,6.0,10.0,52,0.00,-RA,OVC,0.00,745.0,WeatherDisplay:10.37,2013-05-06 14:00:00,
2013-05-06 15:30:00,68.9,49.0,30.03,SSE,157,3.0,7.0,49,0.00,-RA,OVC,0.00,146.0,WeatherDisplay:10.37,2013-05-06 14:30:00,
2013-05-06 16:00:00,67.8,49.0,30.02,SSW,196,0.0,6.0,51,0.00,-RA,OVC,0.00,149.0,WeatherDisplay:10.37,2013-05-06 15:00:00,
2013-05-06 16:30:00,68.7,48.7,30.02,SSW,193,0.0,5.0,49,0.00,-RA,OVC,0.00,153.0,WeatherDisplay:10.37,2013-05-06 15:30:00,
2013-05-06 17:00:00,69.5,49.5,30.02,South,182,1.0,7.0,49,0.00,-RA,OVC,0.00,512.0,WeatherDisplay:10.37,2013-05-06 16:00:00,
2013-05-06 17:30:00,69.6,47.9,30.01,WSW,253,0.0,8.0,46,0.00,-RA,OVC,0.00,278.0,WeatherDisplay:10.37,2013-05-06 16:30:00,
2013-05-06 18:00:00,69.5,47.8,30.00,West,271,1.0,5.0,46,0.00,-RA,OVC,0.00,262.0,WeatherDisplay:10.37,2013-05-06 17:00:00,
2013-05-06 18:30:00,69.0,47.3,30.00,West,269,0.0,4.0,46,0.00,-RA,OVC,0.00,116.0,WeatherDisplay:10.37,2013-05-06 17:30:00,
2013-05-06 19:00:00,68.4,47.9,30.00,West,269,0.0,3.0,48,0.00,-RA,OVC,0.00,88.0,WeatherDisplay:10.37,2013-05-06 18:00:00,
2013-05-06 19:30:00,67.8,47.9,30.00,SSE,157,0.0,7.0,49,0.00,-RA,OVC,0.00,67.0,WeatherDisplay:10.37,2013-05-06 18:30:00,
2013-05-06 20:00:00,66.1,47.5,30.00,SW,223,1.0,12.0,51,0.00,-RA,OVC,0.00,25.0,WeatherDisplay:10.37,2013-05-06 19:00:00,
2013-05-06 20:30:00,64.5,47.4,30.02,SSE,165,0.0,6.0,54,0.00,-RA,OVC,0.00,0.0,WeatherDisplay:10.37,2013-05-06 19:30:00,
2013-05-06 21:00:00,63.1,46.6,30.03,WSW,249,0.0,6.0,55,0.00,-RA,OVC,0.00,0.0,WeatherDisplay:10.37,2013-05-06 20:00:00,
2013-05-06 21:30:00,61.7,46.3,30.03,SW,218,0.0,6.0,57,0.00,-RA,OVC,0.00,0.0,WeatherDisplay:10.37,2013-05-06 20:30:00,
2013-05-06 22:00:00,60.6,46.2,30.04,SW,218,0.0,5.0,59,0.00,-RA,OVC,0.00,0.0,WeatherDisplay:10.37,2013-05-06 21:00:00,
2013-05-06 22:30:00,59.8,45.8,30.04,SW,218,0.0,3.0,60,0.00,-RA,OVC,0.00,0.0,WeatherDisplay:10.37,2013-05-06 21:30:00,
2013-05-06 23:00:00,58.5,45.9,30.04,SW,218,0.0,2.0,63,0.00,-RA,OVC,0.00,0.0,WeatherDisplay:10.37,2013-05-06 22:00:00,
2013-05-06 23:30:00,56.1,46.0,30.04,SW,218,0.0,0.0,69,0.00,-RA,OVC,0.00,0.0,WeatherDisplay:10.37,2013-05-06 22:30:00,